owner,sensor,date,latitude,longitude,vertical_datum,sea_water_practical_salinity,qcFlag 
SCCF RECON,ioos:station:SCCF:13:1,2012-05-01T18:00:00Z,26.5255,-82.0032,2.38,35.33,1111122 
SCCF RECON,ioos:station:SCCF:13:1,2012-05-01T19:00:00Z,26.5255,-82.0032,2.297,35.33,1111122 
SCCF RECON,ioos:station:SCCF:13:1,2012-05-01T20:00:00Z,26.5255,-82.0032,2.27,33.88,1111122 
SCCF RECON,ioos:station:SCCF:13:1,2012-05-01T21:00:00Z,26.5255,-82.0032,2.279,31.43,1111122 
SCCF RECON,ioos:station:SCCF:13:1,2012-05-01T22:00:00Z,26.5255,-82.0032,2.31,31.59,1111122 
SCCF RECON,ioos:station:SCCF:13:1,2012-05-01T23:00:00Z,26.5255,-82.0032,2.394,31.78,1111122 
SCCF RECON,ioos:station:SCCF:13:1,2012-05-02T00:00:00Z,26.5255,-82.0032,2.467,34.37,1111122 
SCCF RECON,ioos:station:SCCF:13:1,2012-05-02T01:00:00Z,26.5255,-82.0032,2.489,34.93,1111122 
SCCF RECON,ioos:station:SCCF:13:1,2012-05-02T02:00:00Z,26.5255,-82.0032,2.52,35.22,1111122 
SCCF RECON,ioos:station:SCCF:13:1,2012-05-02T03:00:00Z,26.5255,-82.0032,2.551,35.46,1111122 
SCCF RECON,ioos:station:SCCF:13:1,2012-05-02T04:00:00Z,26.5255,-82.0032,2.54,35.58,1111122 
SCCF RECON,ioos:station:SCCF:13:1,2012-05-02T05:00:00Z,26.5255,-82.0032,2.461,35.61,1111122 
SCCF RECON,ioos:station:SCCF:13:1,2012-05-02T06:00:00Z,26.5255,-82.0032,2.373,35.58,1111122 
SCCF RECON,ioos:station:SCCF:13:1,2012-05-02T07:00:00Z,26.5255,-82.0032,2.3,34.56,1111122 
SCCF RECON,ioos:station:SCCF:13:1,2012-05-02T08:00:00Z,26.5255,-82.0032,2.235,33.37,1111122 
SCCF RECON,ioos:station:SCCF:13:1,2012-05-02T09:00:00Z,26.5255,-82.0032,2.198,32.41,1111122 
SCCF RECON,ioos:station:SCCF:13:1,2012-05-02T10:00:00Z,26.5255,-82.0032,2.22,32.04,1111122 
SCCF RECON,ioos:station:SCCF:13:1,2012-05-02T11:00:00Z,26.5255,-82.0032,2.386,31.78,1111122 
SCCF RECON,ioos:station:SCCF:13:1,2012-05-02T12:00:00Z,26.5255,-82.0032,2.49,33.59,1111122 
SCCF RECON,ioos:station:SCCF:13:1,2012-05-02T13:00:00Z,26.5255,-82.0032,2.54,33.64,1111122 
SCCF RECON,ioos:station:SCCF:13:1,2012-05-02T14:00:00Z,26.5255,-82.0032,2.6,35.23,1111122 
SCCF RECON,ioos:station:SCCF:13:1,2012-05-02T15:00:00Z,26.5255,-82.0032,2.66,35.7,1111122 
SCCF RECON,ioos:station:SCCF:13:1,2012-05-02T16:00:00Z,26.5255,-82.0032,2.66,35.73,1111122 
SCCF RECON,ioos:station:SCCF:13:1,2012-05-02T17:00:00Z,26.5255,-82.0032,2.595,35.72,1111122 
SCCF RECON,ioos:station:SCCF:13:1,2012-05-02T18:00:00Z,26.5255,-82.0032,2.51,35.61,1111122 
SCCF RECON,ioos:station:SCCF:13:1,2012-05-02T19:00:00Z,26.5255,-82.0032,2.476,35.7,1111122 
SCCF RECON,ioos:station:SCCF:13:1,2012-05-02T20:00:00Z,26.5255,-82.0032,2.371,35.28,1111122 
SCCF RECON,ioos:station:SCCF:13:1,2012-05-02T21:00:00Z,26.5255,-82.0032,2.304,33.87,1111122 
SCCF RECON,ioos:station:SCCF:13:1,2012-05-02T22:00:00Z,26.5255,-82.0032,2.285,33.69,1111122 
SCCF RECON,ioos:station:SCCF:13:1,2012-05-02T23:00:00Z,26.5255,-82.0032,2.3,33.58,1111122 
SCCF RECON,ioos:station:SCCF:13:1,2012-05-03T00:00:00Z,26.5255,-82.0032,2.419,33.48,1111122 
SCCF RECON,ioos:station:SCCF:13:1,2012-05-03T01:00:00Z,26.5255,-82.0032,2.521,33.55,1111122 
SCCF RECON,ioos:station:SCCF:13:1,2012-05-03T02:00:00Z,26.5255,-82.0032,2.59,34.2,1111122 
SCCF RECON,ioos:station:SCCF:13:1,2012-05-03T03:00:00Z,26.5255,-82.0032,2.63,34.91,1111122 
SCCF RECON,ioos:station:SCCF:13:1,2012-05-03T04:00:00Z,26.5255,-82.0032,2.651,35.56,1111122 
SCCF RECON,ioos:station:SCCF:13:1,2012-05-03T05:00:00Z,26.5255,-82.0032,2.63,35.72,1111122 
SCCF RECON,ioos:station:SCCF:13:1,2012-05-03T06:00:00Z,26.5255,-82.0032,2.54,35.71,1111122 
SCCF RECON,ioos:station:SCCF:13:1,2012-05-03T07:00:00Z,26.5255,-82.0032,2.44,35.69,1111122 
SCCF RECON,ioos:station:SCCF:13:1,2012-05-03T08:00:00Z,26.5255,-82.0032,2.36,34.94,1111122 
SCCF RECON,ioos:station:SCCF:13:1,2012-05-03T09:00:00Z,26.5255,-82.0032,2.301,33.95,1111122 
SCCF RECON,ioos:station:SCCF:13:1,2012-05-03T10:00:00Z,26.5255,-82.0032,2.28,33.19,1111122 
SCCF RECON,ioos:station:SCCF:13:1,2012-05-03T11:00:00Z,26.5255,-82.0032,2.33,32.99,1111122 
SCCF RECON,ioos:station:SCCF:13:1,2012-05-03T12:00:00Z,26.5255,-82.0032,2.5,33.09,1111122 
SCCF RECON,ioos:station:SCCF:13:1,2012-05-03T13:00:00Z,26.5255,-82.0032,2.6,34.09,1111122 
SCCF RECON,ioos:station:SCCF:13:1,2012-05-03T14:00:00Z,26.5255,-82.0032,2.669,34.83,1111122 
SCCF RECON,ioos:station:SCCF:13:1,2012-05-03T15:00:00Z,26.5255,-82.0032,2.727,35.71,1111122 
SCCF RECON,ioos:station:SCCF:13:1,2012-05-03T16:00:00Z,26.5255,-82.0032,2.75,35.81,1111122 
SCCF RECON,ioos:station:SCCF:13:1,2012-05-03T17:00:00Z,26.5255,-82.0032,2.7,35.81,1111122 
SCCF RECON,ioos:station:SCCF:13:1,2012-05-03T18:00:00Z,26.5255,-82.0032,2.579,35.72,1111122 
SCCF RECON,ioos:station:SCCF:13:1,2012-05-03T19:00:00Z,26.5255,-82.0032,2.479,35.77,1111122 
SCCF RECON,ioos:station:SCCF:13:1,2012-05-03T20:00:00Z,26.5255,-82.0032,2.395,35.5,1111122 
SCCF RECON,ioos:station:SCCF:13:1,2012-05-03T21:00:00Z,26.5255,-82.0032,2.31,35.36,1111122 
SCCF RECON,ioos:station:SCCF:13:1,2012-05-03T22:00:00Z,26.5255,-82.0032,2.231,34.61,1111122 
SCCF RECON,ioos:station:SCCF:13:1,2012-05-03T23:00:00Z,26.5255,-82.0032,2.181,33.7,1111122 
SCCF RECON,ioos:station:SCCF:13:1,2012-05-04T00:00:00Z,26.5255,-82.0032,2.253,32.89,1111122 
SCCF RECON,ioos:station:SCCF:13:1,2012-05-04T01:00:00Z,26.5255,-82.0032,2.39,32.76,1111122 
SCCF RECON,ioos:station:SCCF:13:1,2012-05-04T02:00:00Z,26.5255,-82.0032,2.49,33.52,1111122 
SCCF RECON,ioos:station:SCCF:13:1,2012-05-04T03:00:00Z,26.5255,-82.0032,2.58,34.39,1111122 
SCCF RECON,ioos:station:SCCF:13:1,2012-05-04T04:00:00Z,26.5255,-82.0032,2.65,34.86,1111122 
SCCF RECON,ioos:station:SCCF:13:1,2012-05-04T05:00:00Z,26.5255,-82.0032,2.64,35.47,1111122 
SCCF RECON,ioos:station:SCCF:13:1,2012-05-04T06:00:00Z,26.5255,-82.0032,2.59,35.6,1111122 
SCCF RECON,ioos:station:SCCF:13:1,2012-05-04T07:00:00Z,26.5255,-82.0032,2.5,35.64,1111122 
SCCF RECON,ioos:station:SCCF:13:1,2012-05-04T08:00:00Z,26.5255,-82.0032,2.42,35.59,1111122 
SCCF RECON,ioos:station:SCCF:13:1,2012-05-04T09:00:00Z,26.5255,-82.0032,2.36,34.76,1111122 
SCCF RECON,ioos:station:SCCF:13:1,2012-05-04T10:00:00Z,26.5255,-82.0032,2.31,33.65,1111122 
SCCF RECON,ioos:station:SCCF:13:1,2012-05-04T11:00:00Z,26.5255,-82.0032,2.307,33.24,1111122 
SCCF RECON,ioos:station:SCCF:13:1,2012-05-04T12:00:00Z,26.5255,-82.0032,2.42,32.97,1111122 
SCCF RECON,ioos:station:SCCF:13:1,2012-05-04T13:00:00Z,26.5255,-82.0032,2.56,33.37,1111122 
SCCF RECON,ioos:station:SCCF:13:1,2012-05-04T14:00:00Z,26.5255,-82.0032,2.66,34.27,1111122 
SCCF RECON,ioos:station:SCCF:13:1,2012-05-04T15:00:00Z,26.5255,-82.0032,2.721,35.27,1111122 
SCCF RECON,ioos:station:SCCF:13:1,2012-05-04T16:00:00Z,26.5255,-82.0032,2.768,35.64,1111122 
SCCF RECON,ioos:station:SCCF:13:1,2012-05-04T17:00:00Z,26.5255,-82.0032,2.76,35.68,1111122 
SCCF RECON,ioos:station:SCCF:13:1,2012-05-04T18:00:00Z,26.5255,-82.0032,2.668,35.66,1111122 
SCCF RECON,ioos:station:SCCF:13:1,2012-05-04T19:00:00Z,26.5255,-82.0032,2.54,35.64,1111122 
SCCF RECON,ioos:station:SCCF:13:1,2012-05-04T20:00:00Z,26.5255,-82.0032,2.432,35.39,1111122 
SCCF RECON,ioos:station:SCCF:13:1,2012-05-04T21:00:00Z,26.5255,-82.0032,2.34,35.43,1111122 
SCCF RECON,ioos:station:SCCF:13:1,2012-05-04T22:00:00Z,26.5255,-82.0032,2.24,34.77,1111122 
SCCF RECON,ioos:station:SCCF:13:1,2012-05-04T23:00:00Z,26.5255,-82.0032,2.16,33.88,1111122 
SCCF RECON,ioos:station:SCCF:13:1,2012-05-05T00:00:00Z,26.5255,-82.0032,2.12,32.74,1111122 
SCCF RECON,ioos:station:SCCF:13:1,2012-05-05T01:00:00Z,26.5255,-82.0032,2.213,32.14,1111122 
SCCF RECON,ioos:station:SCCF:13:1,2012-05-05T02:00:00Z,26.5255,-82.0032,2.37,31.88,1111122 
SCCF RECON,ioos:station:SCCF:13:1,2012-05-05T03:00:00Z,26.5255,-82.0032,2.451,33.04,1111122 
SCCF RECON,ioos:station:SCCF:13:1,2012-05-05T04:00:00Z,26.5255,-82.0032,2.53,33.96,1111122 
SCCF RECON,ioos:station:SCCF:13:1,2012-05-05T05:00:00Z,26.5255,-82.0032,2.597,34.6,1111122 
SCCF RECON,ioos:station:SCCF:13:1,2012-05-05T06:00:00Z,26.5255,-82.0032,2.62,35.48,1111122 
SCCF RECON,ioos:station:SCCF:13:1,2012-05-05T07:00:00Z,26.5255,-82.0032,2.58,35.49,1111122 
SCCF RECON,ioos:station:SCCF:13:1,2012-05-05T08:00:00Z,26.5255,-82.0032,2.48,35.43,1111122 
SCCF RECON,ioos:station:SCCF:13:1,2012-05-05T09:00:00Z,26.5255,-82.0032,2.42,35.35,1111122 
SCCF RECON,ioos:station:SCCF:13:1,2012-05-05T10:00:00Z,26.5255,-82.0032,2.37,35.13,1111122 
SCCF RECON,ioos:station:SCCF:13:1,2012-05-05T11:00:00Z,26.5255,-82.0032,2.33,34.07,1111122 
SCCF RECON,ioos:station:SCCF:13:1,2012-05-05T12:00:00Z,26.5255,-82.0032,2.356,33.25,1111122 
SCCF RECON,ioos:station:SCCF:13:1,2012-05-05T13:00:00Z,26.5255,-82.0032,2.481,33.23,1111122 
SCCF RECON,ioos:station:SCCF:13:1,2012-05-05T14:00:00Z,26.5255,-82.0032,2.6,34.18,1111122 
SCCF RECON,ioos:station:SCCF:13:1,2012-05-05T15:00:00Z,26.5255,-82.0032,2.68,34.91,1111122 
SCCF RECON,ioos:station:SCCF:13:1,2012-05-05T16:00:00Z,26.5255,-82.0032,2.732,35.45,1111122 
SCCF RECON,ioos:station:SCCF:13:1,2012-05-05T17:00:00Z,26.5255,-82.0032,2.775,35.69,1111122 
SCCF RECON,ioos:station:SCCF:13:1,2012-05-05T18:00:00Z,26.5255,-82.0032,2.76,35.7,1111122 
SCCF RECON,ioos:station:SCCF:13:1,2012-05-05T19:00:00Z,26.5255,-82.0032,2.63,35.73,1111122 
SCCF RECON,ioos:station:SCCF:13:1,2012-05-05T20:00:00Z,26.5255,-82.0032,2.5,35.76,1111122 
SCCF RECON,ioos:station:SCCF:13:1,2012-05-05T21:00:00Z,26.5255,-82.0032,2.39,35.55,1111122 
SCCF RECON,ioos:station:SCCF:13:1,2012-05-05T22:00:00Z,26.5255,-82.0032,2.288,35.63,1111122 
SCCF RECON,ioos:station:SCCF:13:1,2012-05-05T23:00:00Z,26.5255,-82.0032,2.19,34.94,1111122 
SCCF RECON,ioos:station:SCCF:13:1,2012-05-06T00:00:00Z,26.5255,-82.0032,2.11,33.88,1111122 
SCCF RECON,ioos:station:SCCF:13:1,2012-05-06T01:00:00Z,26.5255,-82.0032,2.08,32.92,1111122 
SCCF RECON,ioos:station:SCCF:13:1,2012-05-06T02:00:00Z,26.5255,-82.0032,2.184,32.39,1111122 
SCCF RECON,ioos:station:SCCF:13:1,2012-05-06T03:00:00Z,26.5255,-82.0032,2.33,32.04,1111122 
SCCF RECON,ioos:station:SCCF:13:1,2012-05-06T04:00:00Z,26.5255,-82.0032,2.42,32.64,1111122 
SCCF RECON,ioos:station:SCCF:13:1,2012-05-06T05:00:00Z,26.5255,-82.0032,2.5,33.89,1111122 
SCCF RECON,ioos:station:SCCF:13:1,2012-05-06T06:00:00Z,26.5255,-82.0032,2.56,34.49,1111122 
SCCF RECON,ioos:station:SCCF:13:1,2012-05-06T07:00:00Z,26.5255,-82.0032,2.58,35.51,1111122 
SCCF RECON,ioos:station:SCCF:13:1,2012-05-06T08:00:00Z,26.5255,-82.0032,2.53,35.52,1111122 
SCCF RECON,ioos:station:SCCF:13:1,2012-05-06T09:00:00Z,26.5255,-82.0032,2.457,35.45,1111122 
SCCF RECON,ioos:station:SCCF:13:1,2012-05-06T10:00:00Z,26.5255,-82.0032,2.42,35.3,1111122 
SCCF RECON,ioos:station:SCCF:13:1,2012-05-06T11:00:00Z,26.5255,-82.0032,2.39,35.16,1111122 
SCCF RECON,ioos:station:SCCF:13:1,2012-05-06T12:00:00Z,26.5255,-82.0032,2.38,34.43,1111122 
SCCF RECON,ioos:station:SCCF:13:1,2012-05-06T13:00:00Z,26.5255,-82.0032,2.44,33.05,1111122 
SCCF RECON,ioos:station:SCCF:13:1,2012-05-06T14:00:00Z,26.5255,-82.0032,2.561,34.04,1111122 
SCCF RECON,ioos:station:SCCF:13:1,2012-05-06T15:00:00Z,26.5255,-82.0032,2.67,34.92,1111122 
SCCF RECON,ioos:station:SCCF:13:1,2012-05-06T16:00:00Z,26.5255,-82.0032,2.74,35.33,1111122 
SCCF RECON,ioos:station:SCCF:13:1,2012-05-06T17:00:00Z,26.5255,-82.0032,2.788,35.7,1111122 
SCCF RECON,ioos:station:SCCF:13:1,2012-05-06T18:00:00Z,26.5255,-82.0032,2.812,35.78,1111122 
SCCF RECON,ioos:station:SCCF:13:1,2012-05-06T19:00:00Z,26.5255,-82.0032,2.77,35.84,1111122 
SCCF RECON,ioos:station:SCCF:13:1,2012-05-06T20:00:00Z,26.5255,-82.0032,2.635,35.86,1111122 
SCCF RECON,ioos:station:SCCF:13:1,2012-05-06T21:00:00Z,26.5255,-82.0032,2.502,35.86,1111122 
SCCF RECON,ioos:station:SCCF:13:1,2012-05-06T22:00:00Z,26.5255,-82.0032,2.395,35.74,1111122 
SCCF RECON,ioos:station:SCCF:13:1,2012-05-06T23:00:00Z,26.5255,-82.0032,2.29,35.75,1111122 
SCCF RECON,ioos:station:SCCF:13:1,2012-05-07T00:00:00Z,26.5255,-82.0032,2.197,35.23,1111122 
SCCF RECON,ioos:station:SCCF:13:1,2012-05-07T01:00:00Z,26.5255,-82.0032,2.12,34.61,1111122 
SCCF RECON,ioos:station:SCCF:13:1,2012-05-07T02:00:00Z,26.5255,-82.0032,2.09,33.51,1111122 
SCCF RECON,ioos:station:SCCF:13:1,2012-05-07T03:00:00Z,26.5255,-82.0032,2.21,32.91,1111122 
SCCF RECON,ioos:station:SCCF:13:1,2012-05-07T04:00:00Z,26.5255,-82.0032,2.35,32.47,1111122 
SCCF RECON,ioos:station:SCCF:13:1,2012-05-07T05:00:00Z,26.5255,-82.0032,2.41,32.78,1111122 
SCCF RECON,ioos:station:SCCF:13:1,2012-05-07T06:00:00Z,26.5255,-82.0032,2.488,34.22,1111122 
SCCF RECON,ioos:station:SCCF:13:1,2012-05-07T07:00:00Z,26.5255,-82.0032,2.53,34.57,1111122 
SCCF RECON,ioos:station:SCCF:13:1,2012-05-07T08:00:00Z,26.5255,-82.0032,2.55,35.45,1111122 
SCCF RECON,ioos:station:SCCF:13:1,2012-05-07T09:00:00Z,26.5255,-82.0032,2.51,35.65,1111122 
SCCF RECON,ioos:station:SCCF:13:1,2012-05-07T10:00:00Z,26.5255,-82.0032,2.46,35.65,1111122 
SCCF RECON,ioos:station:SCCF:13:1,2012-05-07T11:00:00Z,26.5255,-82.0032,2.42,35.61,1111122 
SCCF RECON,ioos:station:SCCF:13:1,2012-05-07T12:00:00Z,26.5255,-82.0032,2.373,35.22,1111122 
SCCF RECON,ioos:station:SCCF:13:1,2012-05-07T13:00:00Z,26.5255,-82.0032,2.388,34.47,1111122 
SCCF RECON,ioos:station:SCCF:13:1,2012-05-07T14:00:00Z,26.5255,-82.0032,2.49,33.38,1111122 
SCCF RECON,ioos:station:SCCF:13:1,2012-05-07T15:00:00Z,26.5255,-82.0032,2.599,35.04,1111122 
SCCF RECON,ioos:station:SCCF:13:1,2012-05-07T16:00:00Z,26.5255,-82.0032,2.681,35.43,1111122 
SCCF RECON,ioos:station:SCCF:13:1,2012-05-07T17:00:00Z,26.5255,-82.0032,2.751,35.6,1111122 
SCCF RECON,ioos:station:SCCF:13:1,2012-05-07T18:00:00Z,26.5255,-82.0032,2.8,35.79,1111122 
SCCF RECON,ioos:station:SCCF:13:1,2012-05-07T19:00:00Z,26.5255,-82.0032,2.82,35.85,1111122 
SCCF RECON,ioos:station:SCCF:13:1,2012-05-07T20:00:00Z,26.5255,-82.0032,2.77,35.89,1111122 
SCCF RECON,ioos:station:SCCF:13:1,2012-05-07T21:00:00Z,26.5255,-82.0032,2.63,35.88,1111122 
SCCF RECON,ioos:station:SCCF:13:1,2012-05-07T22:00:00Z,26.5255,-82.0032,2.5,35.91,1111122 
SCCF RECON,ioos:station:SCCF:13:1,2012-05-07T23:00:00Z,26.5255,-82.0032,2.39,35.74,1111122 
SCCF RECON,ioos:station:SCCF:13:1,2012-05-08T00:00:00Z,26.5255,-82.0032,2.3,35.79,1111122 
SCCF RECON,ioos:station:SCCF:13:1,2012-05-08T01:00:00Z,26.5255,-82.0032,2.208,35.39,1111122 
SCCF RECON,ioos:station:SCCF:13:1,2012-05-08T02:00:00Z,26.5255,-82.0032,2.139,34.75,1111122 
SCCF RECON,ioos:station:SCCF:13:1,2012-05-08T03:00:00Z,26.5255,-82.0032,2.13,33.82,1111122 
SCCF RECON,ioos:station:SCCF:13:1,2012-05-08T04:00:00Z,26.5255,-82.0032,2.276,33.03,1111122 
SCCF RECON,ioos:station:SCCF:13:1,2012-05-08T05:00:00Z,26.5255,-82.0032,2.38,32.79,1111122 
SCCF RECON,ioos:station:SCCF:13:1,2012-05-08T06:00:00Z,26.5255,-82.0032,2.43,33.34,1111122 
SCCF RECON,ioos:station:SCCF:13:1,2012-05-08T07:00:00Z,26.5255,-82.0032,2.5,34.63,1111122 
SCCF RECON,ioos:station:SCCF:13:1,2012-05-08T08:00:00Z,26.5255,-82.0032,2.56,34.92,1111122 
SCCF RECON,ioos:station:SCCF:13:1,2012-05-08T09:00:00Z,26.5255,-82.0032,2.57,35.68,1111122 
SCCF RECON,ioos:station:SCCF:13:1,2012-05-08T10:00:00Z,26.5255,-82.0032,2.529,35.79,1111122 
SCCF RECON,ioos:station:SCCF:13:1,2012-05-08T11:00:00Z,26.5255,-82.0032,2.481,35.77,1111122 
SCCF RECON,ioos:station:SCCF:13:1,2012-05-08T12:00:00Z,26.5255,-82.0032,2.45,35.67,1111122 
SCCF RECON,ioos:station:SCCF:13:1,2012-05-08T13:00:00Z,26.5255,-82.0032,2.43,35.36,1111122 
SCCF RECON,ioos:station:SCCF:13:1,2012-05-08T14:00:00Z,26.5255,-82.0032,2.453,34.76,1111122 
SCCF RECON,ioos:station:SCCF:13:1,2012-05-08T15:00:00Z,26.5255,-82.0032,2.54,34.35,1111122 
SCCF RECON,ioos:station:SCCF:13:1,2012-05-08T16:00:00Z,26.5255,-82.0032,2.631,35.33,1111122 
SCCF RECON,ioos:station:SCCF:13:1,2012-05-08T17:00:00Z,26.5255,-82.0032,2.7,35.58,1111122 
SCCF RECON,ioos:station:SCCF:13:1,2012-05-08T18:00:00Z,26.5255,-82.0032,2.76,35.69,1111122 
SCCF RECON,ioos:station:SCCF:13:1,2012-05-08T19:00:00Z,26.5255,-82.0032,2.794,35.86,1111122 
SCCF RECON,ioos:station:SCCF:13:1,2012-05-08T20:00:00Z,26.5255,-82.0032,2.79,35.9,1111122 
SCCF RECON,ioos:station:SCCF:13:1,2012-05-08T21:00:00Z,26.5255,-82.0032,2.696,35.94,1111122 
SCCF RECON,ioos:station:SCCF:13:1,2012-05-08T22:00:00Z,26.5255,-82.0032,2.57,35.93,1111122 
SCCF RECON,ioos:station:SCCF:13:1,2012-05-08T23:00:00Z,26.5255,-82.0032,2.456,35.86,1111122 
SCCF RECON,ioos:station:SCCF:13:1,2012-05-09T00:00:00Z,26.5255,-82.0032,2.36,35.84,1111122 
SCCF RECON,ioos:station:SCCF:13:1,2012-05-09T01:00:00Z,26.5255,-82.0032,2.261,35.5,1111122 
SCCF RECON,ioos:station:SCCF:13:1,2012-05-09T02:00:00Z,26.5255,-82.0032,2.17,34.3,1111122 
SCCF RECON,ioos:station:SCCF:13:1,2012-05-09T03:00:00Z,26.5255,-82.0032,2.107,33.68,1111122 
SCCF RECON,ioos:station:SCCF:13:1,2012-05-09T04:00:00Z,26.5255,-82.0032,2.11,33.02,1111122 
SCCF RECON,ioos:station:SCCF:13:1,2012-05-09T05:00:00Z,26.5255,-82.0032,2.23,32.39,1111122 
SCCF RECON,ioos:station:SCCF:13:1,2012-05-09T06:00:00Z,26.5255,-82.0032,2.32,32.02,1111122 
SCCF RECON,ioos:station:SCCF:13:1,2012-05-09T07:00:00Z,26.5255,-82.0032,2.38,32.5,1111122 
SCCF RECON,ioos:station:SCCF:13:1,2012-05-09T08:00:00Z,26.5255,-82.0032,2.44,34.04,1111122 
SCCF RECON,ioos:station:SCCF:13:1,2012-05-09T09:00:00Z,26.5255,-82.0032,2.5,34.14,1111122 
SCCF RECON,ioos:station:SCCF:13:1,2012-05-09T10:00:00Z,26.5255,-82.0032,2.51,35.36,1111122 
SCCF RECON,ioos:station:SCCF:13:1,2012-05-09T11:00:00Z,26.5255,-82.0032,2.48,35.73,1111122 
SCCF RECON,ioos:station:SCCF:13:1,2012-05-09T12:00:00Z,26.5255,-82.0032,2.43,35.77,1111122 
SCCF RECON,ioos:station:SCCF:13:1,2012-05-09T13:00:00Z,26.5255,-82.0032,2.41,35.74,1111122 
SCCF RECON,ioos:station:SCCF:13:1,2012-05-09T14:00:00Z,26.5255,-82.0032,2.42,35.55,1111122 
SCCF RECON,ioos:station:SCCF:13:1,2012-05-09T15:00:00Z,26.5255,-82.0032,2.44,35.19,1111122 
SCCF RECON,ioos:station:SCCF:13:1,2012-05-09T16:00:00Z,26.5255,-82.0032,2.518,35.07,1111122 
SCCF RECON,ioos:station:SCCF:13:1,2012-05-09T17:00:00Z,26.5255,-82.0032,2.601,35.28,1111122 
SCCF RECON,ioos:station:SCCF:13:1,2012-05-09T18:00:00Z,26.5255,-82.0032,2.68,35.56,1111122 
SCCF RECON,ioos:station:SCCF:13:1,2012-05-09T19:00:00Z,26.5255,-82.0032,2.72,35.72,1111122 
SCCF RECON,ioos:station:SCCF:13:1,2012-05-09T20:00:00Z,26.5255,-82.0032,2.74,35.84,1111122 
SCCF RECON,ioos:station:SCCF:13:1,2012-05-09T21:00:00Z,26.5255,-82.0032,2.719,35.91,1111122 
SCCF RECON,ioos:station:SCCF:13:1,2012-05-09T22:00:00Z,26.5255,-82.0032,2.63,35.91,1111122 
SCCF RECON,ioos:station:SCCF:13:1,2012-05-09T23:00:00Z,26.5255,-82.0032,2.53,35.93,1111122 
SCCF RECON,ioos:station:SCCF:13:1,2012-05-10T00:00:00Z,26.5255,-82.0032,2.444,35.81,1111122 
SCCF RECON,ioos:station:SCCF:13:1,2012-05-10T01:00:00Z,26.5255,-82.0032,2.355,35.82,1111122 
SCCF RECON,ioos:station:SCCF:13:1,2012-05-10T02:00:00Z,26.5255,-82.0032,2.26,35.55,1111122 
SCCF RECON,ioos:station:SCCF:13:1,2012-05-10T03:00:00Z,26.5255,-82.0032,2.172,35.02,1111122 
SCCF RECON,ioos:station:SCCF:13:1,2012-05-10T04:00:00Z,26.5255,-82.0032,2.116,34.47,1111122 
SCCF RECON,ioos:station:SCCF:13:1,2012-05-10T05:00:00Z,26.5255,-82.0032,2.121,33.37,1111122 
SCCF RECON,ioos:station:SCCF:13:1,2012-05-10T06:00:00Z,26.5255,-82.0032,2.24,32.88,1111122 
SCCF RECON,ioos:station:SCCF:13:1,2012-05-10T07:00:00Z,26.5255,-82.0032,2.319,32.67,1111122 
SCCF RECON,ioos:station:SCCF:13:1,2012-05-10T08:00:00Z,26.5255,-82.0032,2.37,33.09,1111122 
SCCF RECON,ioos:station:SCCF:13:1,2012-05-10T09:00:00Z,26.5255,-82.0032,2.42,34.21,1111122 
SCCF RECON,ioos:station:SCCF:13:1,2012-05-10T10:00:00Z,26.5255,-82.0032,2.46,34.08,1111122 
SCCF RECON,ioos:station:SCCF:13:1,2012-05-10T11:00:00Z,26.5255,-82.0032,2.47,34.84,1111122 
SCCF RECON,ioos:station:SCCF:13:1,2012-05-10T12:00:00Z,26.5255,-82.0032,2.464,35.45,1111122 
SCCF RECON,ioos:station:SCCF:13:1,2012-05-10T13:00:00Z,26.5255,-82.0032,2.43,35.64,1111122 
SCCF RECON,ioos:station:SCCF:13:1,2012-05-10T14:00:00Z,26.5255,-82.0032,2.402,35.62,1111122 
SCCF RECON,ioos:station:SCCF:13:1,2012-05-10T15:00:00Z,26.5255,-82.0032,2.374,35.31,1111122 
SCCF RECON,ioos:station:SCCF:13:1,2012-05-10T16:00:00Z,26.5255,-82.0032,2.38,34.69,1111122 
SCCF RECON,ioos:station:SCCF:13:1,2012-05-10T17:00:00Z,26.5255,-82.0032,2.45,34.55,1111122 
SCCF RECON,ioos:station:SCCF:13:1,2012-05-10T18:00:00Z,26.5255,-82.0032,2.549,34.94,1111122 
SCCF RECON,ioos:station:SCCF:13:1,2012-05-10T19:00:00Z,26.5255,-82.0032,2.62,35.1,1111122 
SCCF RECON,ioos:station:SCCF:13:1,2012-05-10T20:00:00Z,26.5255,-82.0032,2.652,35.55,1111122 
SCCF RECON,ioos:station:SCCF:13:1,2012-05-10T21:00:00Z,26.5255,-82.0032,2.65,35.61,1111122 
SCCF RECON,ioos:station:SCCF:13:1,2012-05-10T22:00:00Z,26.5255,-82.0032,2.612,35.68,1111122 
SCCF RECON,ioos:station:SCCF:13:1,2012-05-10T23:00:00Z,26.5255,-82.0032,2.56,35.75,1111122 
SCCF RECON,ioos:station:SCCF:13:1,2012-05-11T00:00:00Z,26.5255,-82.0032,2.49,35.71,1111122 
SCCF RECON,ioos:station:SCCF:13:1,2012-05-11T01:00:00Z,26.5255,-82.0032,2.409,35.5,1111122 
SCCF RECON,ioos:station:SCCF:13:1,2012-05-11T02:00:00Z,26.5255,-82.0032,2.33,35.45,1111122 
SCCF RECON,ioos:station:SCCF:13:1,2012-05-11T03:00:00Z,26.5255,-82.0032,2.26,34.99,1111122 
SCCF RECON,ioos:station:SCCF:13:1,2012-05-11T04:00:00Z,26.5255,-82.0032,2.181,34.33,1111122 
SCCF RECON,ioos:station:SCCF:13:1,2012-05-11T05:00:00Z,26.5255,-82.0032,2.13,33.23,1111122 
SCCF RECON,ioos:station:SCCF:13:1,2012-05-11T06:00:00Z,26.5255,-82.0032,2.15,32.36,1111122 
SCCF RECON,ioos:station:SCCF:13:1,2012-05-11T07:00:00Z,26.5255,-82.0032,2.24,31.8,1111122 
SCCF RECON,ioos:station:SCCF:13:1,2012-05-11T08:00:00Z,26.5255,-82.0032,2.32,31.56,1111122 
SCCF RECON,ioos:station:SCCF:13:1,2012-05-11T09:00:00Z,26.5255,-82.0032,2.38,32.17,1111122 
SCCF RECON,ioos:station:SCCF:13:1,2012-05-11T10:00:00Z,26.5255,-82.0032,2.42,33.91,1111122 
SCCF RECON,ioos:station:SCCF:13:1,2012-05-11T11:00:00Z,26.5255,-82.0032,2.465,34.14,1111122 
SCCF RECON,ioos:station:SCCF:13:1,2012-05-11T12:00:00Z,26.5255,-82.0032,2.48,34.96,1111122 
SCCF RECON,ioos:station:SCCF:13:1,2012-05-11T13:00:00Z,26.5255,-82.0032,2.45,35.38,1111122 
SCCF RECON,ioos:station:SCCF:13:1,2012-05-11T14:00:00Z,26.5255,-82.0032,2.43,35.3,1111122 
SCCF RECON,ioos:station:SCCF:13:1,2012-05-11T15:00:00Z,26.5255,-82.0032,2.416,35.36,1111122 
SCCF RECON,ioos:station:SCCF:13:1,2012-05-11T16:00:00Z,26.5255,-82.0032,2.4,35.0,1111122 
SCCF RECON,ioos:station:SCCF:13:1,2012-05-11T17:00:00Z,26.5255,-82.0032,2.4,34.25,1111122 
SCCF RECON,ioos:station:SCCF:13:1,2012-05-11T18:00:00Z,26.5255,-82.0032,2.454,34.19,1111122 
SCCF RECON,ioos:station:SCCF:13:1,2012-05-11T19:00:00Z,26.5255,-82.0032,2.52,34.81,1111122 
SCCF RECON,ioos:station:SCCF:13:1,2012-05-11T20:00:00Z,26.5255,-82.0032,2.592,35.26,1111122 
SCCF RECON,ioos:station:SCCF:13:1,2012-05-11T21:00:00Z,26.5255,-82.0032,2.639,35.53,1111122 
SCCF RECON,ioos:station:SCCF:13:1,2012-05-11T22:00:00Z,26.5255,-82.0032,2.63,35.55,1111122 
SCCF RECON,ioos:station:SCCF:13:1,2012-05-11T23:00:00Z,26.5255,-82.0032,2.62,35.64,1111122 
SCCF RECON,ioos:station:SCCF:13:1,2012-05-12T00:00:00Z,26.5255,-82.0032,2.58,35.65,1111122 
SCCF RECON,ioos:station:SCCF:13:1,2012-05-12T01:00:00Z,26.5255,-82.0032,2.528,35.63,1111122 
SCCF RECON,ioos:station:SCCF:13:1,2012-05-12T02:00:00Z,26.5255,-82.0032,2.45,35.37,1111122 
SCCF RECON,ioos:station:SCCF:13:1,2012-05-12T03:00:00Z,26.5255,-82.0032,2.36,34.49,1111122 
SCCF RECON,ioos:station:SCCF:13:1,2012-05-12T04:00:00Z,26.5255,-82.0032,2.291,33.64,1111122 
SCCF RECON,ioos:station:SCCF:13:1,2012-05-12T05:00:00Z,26.5255,-82.0032,2.21,32.86,1111122 
SCCF RECON,ioos:station:SCCF:13:1,2012-05-12T06:00:00Z,26.5255,-82.0032,2.15,31.84,1111122 
SCCF RECON,ioos:station:SCCF:13:1,2012-05-12T07:00:00Z,26.5255,-82.0032,2.16,31.0,1111122 
SCCF RECON,ioos:station:SCCF:13:1,2012-05-12T08:00:00Z,26.5255,-82.0032,2.251,30.54,1111122 
SCCF RECON,ioos:station:SCCF:13:1,2012-05-12T09:00:00Z,26.5255,-82.0032,2.33,30.52,1111122 
SCCF RECON,ioos:station:SCCF:13:1,2012-05-12T10:00:00Z,26.5255,-82.0032,2.39,31.11,1111122 
SCCF RECON,ioos:station:SCCF:13:1,2012-05-12T11:00:00Z,26.5255,-82.0032,2.44,32.87,1111122 
SCCF RECON,ioos:station:SCCF:13:1,2012-05-12T12:00:00Z,26.5255,-82.0032,2.482,33.29,1111122 